This is the latest recevied weather packets stored in our database for station/object WX4HP-13. If no packets are shown the sender has not sent any weather packets the latest 10 day(s).
| Time | Temp. | Humidity | Pressure | Rain* | Wind** | Luminosity | Snow |
|---|---|---|---|---|---|---|---|
| 1777776897 | 11.11° C | 62% | 1017.9 hPa | 0 mm | - | - | - |
| 1777776595 | 11.11° C | 62% | 1017.8 hPa | 0 mm | - | - | - |
| 1777776297 | 11.11° C | 65% | 1017.8 hPa | 0 mm | - | - | - |
| 1777775996 | 11.11° C | 65% | 1017.8 hPa | 0 mm | - | - | - |
| 1777775697 | 10.56° C | 63% | 1017.7 hPa | 0 mm | - | - | - |
| 1777775396 | 11.11° C | 65% | 1017.7 hPa | 0 mm | - | - | - |
| 1777775096 | 11.11° C | 64% | 1017.6 hPa | 0 mm | - | - | - |
| 1777774841 | 10.56° C | 65% | 1017.6 hPa | 0 mm | - | - | - |
| 1777774797 | 10.56° C | 65% | 1017.6 hPa | 0 mm | - | - | - |
| 1777774496 | 11.11° C | 68% | 1017.5 hPa | 0 mm | - | - | - |
| 1777774197 | 11.11° C | 66% | 1017.4 hPa | 0 mm | - | - | - |
| 1777773897 | 11.11° C | 63% | 1017.4 hPa | 0 mm | - | - | - |
| 1777773597 | 11.11° C | 63% | 1017.2 hPa | 0 mm | - | - | - |
| 1777773296 | 11.11° C | 62% | 1017.1 hPa | 0 mm | - | - | - |
| 1777772997 | 11.11° C | 63% | 1017.2 hPa | 0 mm | - | - | - |
| 1777772696 | 11.11° C | 66% | 1017.1 hPa | 0 mm | - | - | - |
| 1777772396 | 11.11° C | 65% | 1016.9 hPa | 0 mm | - | - | - |
| 1777772097 | 11.11° C | 61% | 1016.9 hPa | 0 mm | - | - | - |
| 1777771497 | 11.11° C | 63% | 1016.7 hPa | 0 mm | - | - | - |
| 1777771196 | 11.67° C | 61% | 1016.8 hPa | 0 mm | - | - | - |
| 1777770896 | 11.67° C | 61% | 1016.6 hPa | 0 mm | - | - | - |
| 1777770597 | 12.22° C | 57% | 1016.6 hPa | 0 mm | - | - | - |
| 1777770297 | 12.22° C | 57% | 1016.4 hPa | 0 mm | - | - | - |
| 1777769696 | 12.78° C | 54% | 1016.2 hPa | 0 mm | - | - | - |
| 1777769096 | 13.33° C | 51% | 1015.9 hPa | 0 mm | - | - | - |
* Rain latest hour (hover to see other rain measurements)
** Current wind speed in m/s (hover to see current wind gust speed)